Meteo orario Abadeh

Oggi, 1 Marzo, Lunedi

Tempo Temperatura Precipitazioni Vento Pressione Umidità
00:00 +6°C° 0 mm 2 m/s 587 mm Hg 37%
01:00 +4°C° 0 mm 3 m/s 586 mm Hg 37%
02:00 +4°C° 0 mm 3 m/s 586 mm Hg 40%
03:00 +4°C° 0 mm 4 m/s 586 mm Hg 43%
04:00 +4°C° 0 mm 4 m/s 587 mm Hg 48%
05:00 +4°C° 0 mm 4 m/s 586 mm Hg 55%
06:00 +3°C° 0 mm 4 m/s 586 mm Hg 62%
07:00 +1°C° 0 mm 4 m/s 586 mm Hg 69%
08:00 +3°C° 0.2 mm 3 m/s 587 mm Hg 68%
09:00 +5°C° 0.2 mm 2 m/s 587 mm Hg 66%
10:00 +6°C° 0 mm 2 m/s 588 mm Hg 64%
11:00 +6°C° 0.5 mm 2 m/s 588 mm Hg 67%
12:00 +5°C° 0.5 mm 3 m/s 588 mm Hg 70%
13:00 +5°C° 0.5 mm 4 m/s 588 mm Hg 73%
14:00 +5°C° 0.3 mm 4 m/s 588 mm Hg 71%
15:00 +6°C° 0.3 mm 4 m/s 588 mm Hg 68%
16:00 +6°C° 0.3 mm 4 m/s 588 mm Hg 66%
17:00 +6°C° 0 mm 4 m/s 588 mm Hg 67%
18:00 +5°C° 0 mm 4 m/s 588 mm Hg 69%
19:00 +5°C° 0 mm 3 m/s 588 mm Hg 71%
20:00 +4°C° 0 mm 3 m/s 588 mm Hg 72%
21:00 +4°C° 0 mm 3 m/s 588 mm Hg 74%
22:00 +3°C° 0 mm 3 m/s 588 mm Hg 75%
23:00 +3°C° 0 mm 3 m/s 588 mm Hg 76%

Domani, 2 Marzo, Martedi

Tempo Temperatura Precipitazioni Vento Pressione Umidità
00:00 +3°C° 0 mm 4 m/s 588 mm Hg 77%
01:00 +1°C° 0 mm 4 m/s 588 mm Hg 78%
02:00 +2°C° 0 mm 3 m/s 588 mm Hg 79%
03:00 +1°C° 0 mm 3 m/s 587 mm Hg 79%
04:00 +1°C° 0 mm 3 m/s 587 mm Hg 79%
05:00 +1°C° 0 mm 3 m/s 587 mm Hg 80%
06:00 +1°C° 0 mm 2 m/s 587 mm Hg 81%
07:00 +1°C° 0 mm 2 m/s 587 mm Hg 82%
08:00 +3°C° 0 mm 2 m/s 588 mm Hg 71%
09:00 +4°C° 0 mm 2 m/s 589 mm Hg 61%
10:00 +5°C° 0 mm 3 m/s 590 mm Hg 50%
11:00 +7°C° 0 mm 3 m/s 590 mm Hg 45%
12:00 +7°C° 0 mm 4 m/s 590 mm Hg 39%
13:00 +8°C° 0 mm 5 m/s 591 mm Hg 34%
14:00 +9°C° 0 mm 6 m/s 590 mm Hg 34%
15:00 +9°C° 0 mm 7 m/s 590 mm Hg 34%
16:00 +9°C° 0 mm 7 m/s 590 mm Hg 35%
17:00 +8°C° 0 mm 7 m/s 589 mm Hg 40%
18:00 +7°C° 0 mm 6 m/s 589 mm Hg 44%
19:00 +5°C° 0 mm 6 m/s 589 mm Hg 49%
20:00 +6°C° 0 mm 4 m/s 589 mm Hg 52%
21:00 +5°C° 0 mm 3 m/s 589 mm Hg 54%
22:00 +5°C° 0 mm 2 m/s 589 mm Hg 57%
23:00 +5°C° 0 mm 2 m/s 589 mm Hg 58%

Dopodomani, 3 Marzo, Mercoledi

Tempo Temperatura Precipitazioni Vento Pressione Umidità
00:00 +4°C° 0 mm 2 m/s 588 mm Hg 59%
01:00 +4°C° 0 mm 2 m/s 588 mm Hg 60%
02:00 +3°C° 0 mm 2 m/s 588 mm Hg 61%
03:00 +3°C° 0 mm 2 m/s 587 mm Hg 62%
04:00 +2°C° 0 mm 2 m/s 587 mm Hg 63%
05:00 +2°C° 0 mm 2 m/s 587 mm Hg 63%
06:00 +2°C° 0 mm 2 m/s 587 mm Hg 62%
07:00 +2°C° 0 mm 1 m/s 587 mm Hg 62%
08:00 +4°C° 0 mm 1 m/s 588 mm Hg 52%
09:00 +5°C° 0 mm 1 m/s 589 mm Hg 42%
10:00 +7°C° 0 mm 1 m/s 590 mm Hg 33%
11:00 +9°C° 0 mm 1 m/s 590 mm Hg 28%
12:00 +9°C° 0 mm 2 m/s 590 mm Hg 22%
13:00 +12°C° 0 mm 2 m/s 590 mm Hg 17%
14:00 +11°C° 0 mm 3 m/s 590 mm Hg 16%
15:00 +12°C° 0 mm 3 m/s 590 mm Hg 14%
16:00 +13°C° 0 mm 4 m/s 590 mm Hg 13%
17:00 +12°C° 0 mm 4 m/s 590 mm Hg 17%
18:00 +11°C° 0 mm 3 m/s 589 mm Hg 21%
19:00 +9°C° 0 mm 3 m/s 589 mm Hg 24%
20:00 +8°C° 0 mm 3 m/s 589 mm Hg 27%
21:00 +8°C° 0 mm 3 m/s 589 mm Hg 29%
22:00 +7°C° 0 mm 2 m/s 589 mm Hg 31%
23:00 +6°C° 0 mm 2 m/s 588 mm Hg 31%

4 Marzo, Giovedi

Tempo Temperatura Precipitazioni Vento Pressione Umidità
00:00 +6°C° 0 mm 2 m/s 588 mm Hg 32%
01:00 +5°C° 0 mm 2 m/s 588 mm Hg 33%
02:00 +5°C° 0 mm 2 m/s 588 mm Hg 33%
03:00 +4°C° 0 mm 2 m/s 587 mm Hg 33%
04:00 +4°C° 0 mm 2 m/s 587 mm Hg 33%
05:00 +3°C° 0 mm 2 m/s 587 mm Hg 32%
06:00 +4°C° 0 mm 1 m/s 587 mm Hg 31%
07:00 +4°C° 0 mm 1 m/s 587 mm Hg 30%
08:00 +6°C° 0 mm 1 m/s 588 mm Hg 25%
09:00 +8°C° 0 mm 1 m/s 590 mm Hg 19%
10:00 +10°C° 0 mm 2 m/s 591 mm Hg 14%
11:00 +12°C° 0 mm 2 m/s 592 mm Hg 16%
12:00 +13°C° 0 mm 3 m/s 592 mm Hg 18%
13:00 +14°C° 0 mm 3 m/s 592 mm Hg 20%
14:00 +15°C° 0 mm 4 m/s 592 mm Hg 23%
15:00 +15°C° 0 mm 5 m/s 592 mm Hg 25%
16:00 +16°C° 0 mm 5 m/s 592 mm Hg 28%
17:00 +14°C° 0 mm 5 m/s 592 mm Hg 34%
18:00 +13°C° 0 mm 4 m/s 592 mm Hg 40%
19:00 +12°C° 0 mm 4 m/s 591 mm Hg 45%
20:00 +12°C° 0 mm 4 m/s 591 mm Hg 49%
21:00 +11°C° 0 mm 4 m/s 591 mm Hg 53%
22:00 +10°C° 0 mm 4 m/s 591 mm Hg 57%
23:00 +10°C° 0.1 mm 3 m/s 591 mm Hg 60%

5 Marzo, Venerdi

Tempo Temperatura Precipitazioni Vento Pressione Umidità
00:00 +9°C° 0.1 mm 2 m/s 590 mm Hg 63%
01:00 +9°C° 0.1 mm 2 m/s 590 mm Hg 66%
02:00 +8°C° 0 mm 3 m/s 589 mm Hg 65%
03:00 +7°C° 0 mm 4 m/s 589 mm Hg 63%
04:00 +7°C° 0 mm 4 m/s 588 mm Hg 62%
05:00 +6°C° 0.1 mm 7 m/s 588 mm Hg 63%
06:00 +6°C° 0.1 mm 9 m/s 588 mm Hg 64%
07:00 +5°C° 0.1 mm 12 m/s 588 mm Hg 65%
08:00 +5°C° 0.4 mm 12 m/s 588 mm Hg 65%
09:00 +7°C° 0.4 mm 13 m/s 588 mm Hg 64%
10:00 +6°C° 0.4 mm 14 m/s 589 mm Hg 64%
11:00 +6°C° 0.7 mm 14 m/s 588 mm Hg 64%
12:00 +8°C° 0.7 mm 15 m/s 588 mm Hg 64%
13:00 +8°C° 0.7 mm 15 m/s 588 mm Hg 64%
14:00 +9°C° 0.3 mm 16 m/s 588 mm Hg 54%
15:00 +10°C° 0.3 mm 17 m/s 588 mm Hg 43%
16:00 +11°C° 0.3 mm 18 m/s 588 mm Hg 33%
17:00 +9°C° 0 mm 16 m/s 587 mm Hg 36%
18:00 +7°C° 0 mm 13 m/s 587 mm Hg 38%
19:00 +6°C° 0 mm 11 m/s 586 mm Hg 41%
20:00 +5°C° 0 mm 9 m/s 587 mm Hg 46%
21:00 +4°C° 0 mm 7 m/s 587 mm Hg 51%
22:00 +3°C° 0 mm 5 m/s 587 mm Hg 56%
23:00 +3°C° 0 mm 5 m/s 587 mm Hg 57%

6 Marzo, Sabato

Tempo Temperatura Precipitazioni Vento Pressione Umidità
00:00 +3°C° 0 mm 4 m/s 587 mm Hg 57%
01:00 +3°C° 0 mm 4 m/s 587 mm Hg 58%
02:00 +2°C° 0 mm 3 m/s 586 mm Hg 58%
03:00 +2°C° 0 mm 3 m/s 586 mm Hg 58%
04:00 +1°C° 0 mm 3 m/s 586 mm Hg 58%
05:00 +2°C° 0 mm 2 m/s 586 mm Hg 58%
06:00 +2°C° 0 mm 2 m/s 586 mm Hg 59%
07:00 +2°C° 0 mm 1 m/s 586 mm Hg 60%
08:00 +4°C° 0 mm 1 m/s 587 mm Hg 51%
09:00 +4°C° 0 mm 0 m/s 588 mm Hg 42%
10:00 +6°C° 0 mm 0 m/s 589 mm Hg 33%
11:00 +7°C° 0 mm 0 m/s 589 mm Hg 29%
12:00 +10°C° 0 mm 1 m/s 590 mm Hg 24%
13:00 +11°C° 0 mm 1 m/s 590 mm Hg 19%
14:00 +12°C° 0 mm 1 m/s 590 mm Hg 18%
15:00 +12°C° 0 mm 1 m/s 590 mm Hg 16%
16:00 +13°C° 0 mm 1 m/s 589 mm Hg 15%
17:00 +12°C° 0 mm 2 m/s 589 mm Hg 18%
18:00 +12°C° 0 mm 2 m/s 589 mm Hg 21%
19:00 +10°C° 0 mm 2 m/s 589 mm Hg 24%
20:00 +10°C° 0 mm 1 m/s 589 mm Hg 27%
21:00 +9°C° 0 mm 1 m/s 589 mm Hg 31%
22:00 +7°C° 0 mm 0 m/s 589 mm Hg 34%
23:00 +7°C° 0 mm 0 m/s 589 mm Hg 35%
Mostrare altro

Abbiamo bisogno del tuo consenso

Meteoprog e i nostri fornitori di servizi possono memorizzare e accedere a dati personali come cookie, identificatori di dispositivi o altre tecnologie simili sul tuo dispositivo e possono elaborare tali dati per personalizzare i contenuti e gli annunci, nonché fornire funzionalità dei social media e analizzarne il traffico.

  • Archiviare e/o accedere alle informazioni sul tuo dispositivo

    Cookie, identificatori di dispositivi o altre informazioni possono essere memorizzati o resi accessibili sul tuo dispositivo per le finalità sopra indicate.

  • Annunci e contenuti personalizzati, misurazione di annunci e contenuti, approfondimenti sul pubblico e sviluppo di prodotti

    Gli annunci e i contenuti possono essere personalizzati in base a un profilo. È possibile aggiungere più dati per personalizzare meglio annunci e contenuti. È possibile misurare il rendimento degli annunci e dei contenuti. È possibile ricavare informazioni sul pubblico che ha visto gli annunci e i contenuti. Tali dati possono essere utilizzati per sviluppare o migliorare l'esperienza, i sistemi e il software dell'utente.

Cliccando su “Accetto”, acconsenti all'uso di cookie, identificatori di dispositivo, web beacon o altre tecnologie simili. Puoi modificare le impostazioni nel browser del tuo dispositivo.

Per determinati scopi, è possibile fare affidamento su interessi legali, piuttosto che sul consenso. Puoi approfondire questo argomento consultando la nostra Informativa sulla privacy e sui cookie.